Shelbyville, IN

4:53 PM EST on February 23, 2017 (GMT -0500)
Shelbyville Municipal

Weather History for KGEZ - October, 2012

Change the Weather History Date:

Saturday, October 13, 2012

  Actual Average Record
Temperature  
Mean Temperature 56 °F 55 °F  
Max Temperature 71 °F 67 °F 79 °F (2008)
Min Temperature 41 °F 43 °F 30 °F (2006)
Degree Days  
Heating Degree Days 9 11  
Month to date heating degree days 166 115  
Since 1 July heating degree days 250 200  
Cooling Degree Days 0 0  
Month to date cooling degree days 2 11  
Year to date cooling degree days 1406 910  
Growing Degree Days 6 (Base 50)    
Moisture  
Dew Point 48 °F    
Average Humidity 73    
Maximum Humidity 87    
Minimum Humidity 59    
Precipitation  
Precipitation 0.00 in 0.10 in 1.04 in (2014)
Month to date precipitation 1.24 1.37  
Year to date precipitation 23.91 34.82  
Sea Level Pressure  
Sea Level Pressure 30.14 in    
Wind  
Wind Speed 10 mph (SSE)    
Max Wind Speed 21 mph    
Max Gust Speed 28 mph    
Visibility 10 miles    
Events      
T = Trace of Precipitation, MM = Missing Value Source: NWS Daily Summary

Daily Weather History Graph

Daily Weather History Graph

Search for Another Location

Airport or City:

Trip Planner

Search our weather history database for the weather conditions in past years. The results will help you decide how hot, cold, wet, or windy it might be!

Date:

Astronomy

Oct. 13, 2012 Rise Set
Actual Time 7:51 AM EDT 7:06 PM EDT
Civil Twilight 7:24 AM EDT 7:33 PM EDT
Nautical Twilight 6:53 AM EDT 8:04 PM EDT
Astronomical Twilight 6:22 AM EDT 8:35 PM EDT
Moon 5:41 AM EDT (10/13) 5:49 PM EDT (10/13)
Length of Visible Light 12h 08m
Length of Day
11h 14m
Waning Crescent, 5% of the Moon is Illuminated
Oct 13
Waning Crescent
Oct 15
New
Oct 21
First Quarter
Oct 29
Full
Nov 6
Last Quarter

Hourly Weather History & Observations

Time (EDT) Temp. Windchill Dew Point Humidity Pressure Visibility Wind Dir Wind Speed Gust Speed Precip Events Conditions
12:53 AM 44.1 °F 40.1 °F 34.0 °F 68% 30.30 in 10.0 mi East 6.9 mph - N/A   Clear
1:53 AM 44.1 °F 40.1 °F 33.1 °F 65% 30.29 in 10.0 mi ESE 6.9 mph - N/A   Clear
2:53 AM 44.1 °F 41.5 °F 33.1 °F 65% 30.28 in 10.0 mi SE 4.6 mph - N/A   Clear
3:53 AM 43.0 °F - 32.0 °F 65% 30.28 in 10.0 mi Calm Calm - N/A   Clear
4:53 AM 42.1 °F 37.7 °F 34.0 °F 73% 30.25 in 10.0 mi ESE 6.9 mph - N/A   Clear
5:53 AM 44.1 °F 41.5 °F 35.1 °F 71% 30.24 in 10.0 mi SSE 4.6 mph - N/A   Clear
6:53 AM 46.0 °F 43.1 °F 37.0 °F 71% 30.23 in 10.0 mi SSE 5.8 mph - N/A   Clear
7:53 AM 46.9 °F - 39.0 °F 74% 30.22 in 10.0 mi SE 6.9 mph - N/A   Clear
8:53 AM 48.9 °F - 39.9 °F 71% 30.21 in 10.0 mi SSE 8.1 mph - N/A   Clear
9:53 AM 54.0 °F - 43.0 °F 66% 30.19 in 10.0 mi SSE 12.7 mph - N/A   Overcast
10:53 AM 59.0 °F - 46.9 °F 64% 30.17 in 10.0 mi South 12.7 mph - N/A   Clear
11:53 AM 62.1 °F - 51.1 °F 67% 30.15 in 10.0 mi South 11.5 mph - N/A   Clear
12:53 PM 64.9 °F - 52.0 °F 63% 30.14 in 10.0 mi SSW 13.8 mph - N/A   Clear
2:53 PM 68.0 °F - 57.0 °F 68% 30.07 in 10.0 mi South 12.7 mph - N/A   Overcast
4:27 PM 69.8 °F - 60.8 °F 73% 30.04 in 8.0 mi South 15.0 mph - N/A   Mostly Cloudy
4:53 PM 69.1 °F - 60.1 °F 73% 30.03 in 10.0 mi South 11.5 mph - N/A   Overcast
5:53 PM 70.0 °F - 61.0 °F 73% 30.01 in 10.0 mi South 8.1 mph - N/A   Mostly Cloudy
6:53 PM 70.0 °F - 62.1 °F 76% 30.01 in 10.0 mi South 11.5 mph - N/A   Mostly Cloudy
8:53 PM 66.9 °F - 62.1 °F 84% 29.98 in 9.0 mi South 13.8 mph - N/A   Mostly Cloudy
10:53 PM 68.0 °F - 62.1 °F 81% 29.97 in 10.0 mi South 15.0 mph - N/A   Clear
11:53 PM 66.9 °F - 62.1 °F 84% 29.96 in 9.0 mi South 11.5 mph - N/A   Clear